TimeEDT,TemperatureF,Dew PointF,Humidity,Sea Level PressureIn,VisibilityMPH,Wind Direction,Wind SpeedMPH,Gust SpeedMPH,PrecipitationIn,Events,Conditions,WindDirDegrees,DateUTC
12:51 AM,51.1,37.0,59,29.63,10.0,West,12.7,21.9,N/A,,Clear,260,2012-10-31 04:51:00
1:51 AM,51.1,36.0,56,29.64,10.0,West,10.4,19.6,N/A,,Clear,260,2012-10-31 05:51:00
2:51 AM,51.1,36.0,56,29.64,10.0,West,12.7,20.7,N/A,,Clear,270,2012-10-31 06:51:00
3:51 AM,51.1,36.0,56,29.65,10.0,West,11.5,21.9,N/A,,Partly Cloudy,270,2012-10-31 07:51:00
4:51 AM,50.0,36.0,59,29.66,10.0,West,13.8,21.9,N/A,,Clear,270,2012-10-31 08:51:00
5:51 AM,50.0,36.0,59,29.68,10.0,West,10.4,19.6,N/A,,Clear,270,2012-10-31 09:51:00
6:51 AM,50.0,36.0,59,29.70,10.0,West,12.7,21.9,N/A,,Clear,270,2012-10-31 10:51:00
7:51 AM,50.0,37.0,61,29.70,10.0,West,12.7,20.7,N/A,,Clear,260,2012-10-31 11:51:00
8:51 AM,51.1,37.0,59,29.72,10.0,West,11.5,19.6,N/A,,Clear,260,2012-10-31 12:51:00
9:51 AM,51.1,37.9,61,29.72,10.0,West,12.7,20.7,N/A,,Clear,270,2012-10-31 13:51:00
10:51 AM,54.0,39.9,59,29.72,10.0,West,11.5,19.6,N/A,,Clear,270,2012-10-31 14:51:00
11:51 AM,55.0,39.9,57,29.70,10.0,West,10.4,-,N/A,,Clear,260,2012-10-31 15:51:00
12:51 PM,55.9,39.0,53,29.69,10.0,WSW,11.5,17.3,N/A,,Clear,250,2012-10-31 16:51:00
1:51 PM,57.0,39.0,51,29.67,10.0,West,11.5,20.7,N/A,,Clear,260,2012-10-31 17:51:00
2:51 PM,57.0,41.0,55,29.65,10.0,WNW,10.4,16.1,N/A,,Clear,290,2012-10-31 18:51:00
3:51 PM,57.0,39.9,53,29.65,10.0,West,10.4,17.3,N/A,,Clear,280,2012-10-31 19:51:00
4:51 PM,55.9,39.9,55,29.66,10.0,West,11.5,19.6,N/A,,Clear,270,2012-10-31 20:51:00
5:51 PM,55.0,39.9,57,29.67,10.0,West,8.1,-,N/A,,Mostly Cloudy,260,2012-10-31 21:51:00
6:51 PM,55.0,41.0,59,29.69,10.0,West,9.2,-,N/A,,Mostly Cloudy,280,2012-10-31 22:51:00
7:51 PM,55.0,41.0,59,29.72,10.0,WNW,10.4,17.3,N/A,,Scattered Clouds,300,2012-10-31 23:51:00
8:51 PM,55.0,39.0,55,29.74,10.0,WNW,11.5,18.4,N/A,,Overcast,300,2012-11-01 00:51:00
9:51 PM,54.0,39.0,57,29.75,10.0,WNW,8.1,-,N/A,,Overcast,290,2012-11-01 01:51:00
10:51 PM,54.0,39.9,59,29.76,10.0,WNW,6.9,-,N/A,,Clear,290,2012-11-01 02:51:00
11:51 PM,55.0,39.0,55,29.76,10.0,WNW,9.2,-,N/A,,Overcast,290,2012-11-01 03:51:00